Location: Grossmotten
(48.5500°N, 15.3833°E)
Time: 17:56:18
(UTC+00:00)

Tsikada Rocket - Pass Details

Date: 15 November 2019
Orbit: 959 x 1009 km, 82.9° (Epoch: 06 December)

Event Time Altitude Azimuth Distance (km) Brightness Sun altitude
Rises 05:25:53 0° 347° (NNW) 3,751 6.7 -6.9°
Reaches altitude 10° 05:28:30 10° 342° (NNW) 2,793 6.0 -6.5°
Maximum altitude 05:34:40 52° 269° (W) 1,236 4.3 -5.5°
Drops below altitude 10° 05:40:45 10° 195° (SSW) 2,750 6.5 -4.6°
Sets 05:43:18 0° 191° (S) 3,687 7.2 -4.2°
